Regional Weather Roundup
Issued by NWS

Home | Current Version | Previous Version | Text Only | Print | Product List | Glossary Off
Versions: 1 2 3 4 5 6 7 8 9 10 11 12 13 14 15 16 17 18 19 20 21 22 23 24 25 26 27 28 29 30 31 32 33 34 35 36 37 38 39 40 41 42 43 44 45 46 47 48 49 50

000
ASUS43 KOAX 281310
RWRNE

WEATHER ROUNDUP FOR NEBRASKA
NATIONAL WEATHER SERVICE OMAHA NE
800 AM CDT SUN MAY 28 2017

NOTES: SATELLITE DATA IS BEING USED TO AUGMENT CLOUD COVER ABOVE
       12000 FEET.
       "FAIR" INDICATES FEW OR NO CLOUDS BELOW 12,000 FEET WITH NO
       SIGNIFICANT WEATHER AND/OR OBSTRUCTIONS TO VISIBILITY.

  * THESE STATIONS DO NOT REPORT WEATHER SUCH AS RAIN...SNOW OR FOG.

NEZ001>004-019>022-054>056-281400-
NEBRASKA PANHANDLE

CITY           SKY/WX    TMP DP  RH WIND       PRES   REMARKS
SCOTTSBLUFF    SUNNY     47  41  80 NW8       30.18R
ALLIANCE       SUNNY     48  44  86 W8        30.12R
CHADRON        PTSUNNY   53  42  66 W13       30.10R
GORDON         FAIR      52  43  72 W13       30.08R
KIMBALL        SUNNY     49  37  64 W13       30.21R
SIDNEY         SUNNY     48  39  71 W12       30.18R
$$

NEZ057>060-069>072-079>082-281400-
SOUTHWEST NEBRASKA

CITY           SKY/WX    TMP DP  RH WIND       PRES   REMARKS
NORTH PLATTE   SUNNY     51  47  86 W9        30.08R
IMPERIAL       SUNNY     53  40  61 NW14      30.13R
LEXINGTON      SUNNY     53  47  82 NW13      30.04S
MCCOOK         SUNNY     51  46  83 W16       30.08R
OGALLALA       SUNNY     53  45  74 W7        30.12R
$$

NEZ005>010-023>029-035>040-094-281400-
NORTH CENTRAL NEBRASKA

CITY           SKY/WX    TMP DP  RH WIND       PRES   REMARKS
VALENTINE      SUNNY     57  45  64 W9        30.00R
AINSWORTH      SUNNY     57  46  68 W12       30.00R
BROKEN BOW     SUNNY     57  45  64 NW16      30.01R
O`NEILL        SUNNY     58  46  65 W9        29.95S
ORD            SUNNY     57  47  69 NW7       29.97S
THEDFORD       SUNNY     55  46  71 W9        30.05R
$$

NEZ041-046>049-061>064-073>077-083>087-281400-
SOUTH CENTRAL NEBRASKA

CITY           SKY/WX    TMP DP  RH WIND       PRES   REMARKS
GRAND ISLAND   SUNNY     58  49  72 W12       29.98R
AURORA         SUNNY     59  48  66 W10       29.98R
HASTINGS       SUNNY     59  48  67 NW13      30.00R
HEBRON         SUNNY     60  52  74 NW9       29.97S
HOLDREGE       SUNNY     56  45  67 NW14G20   30.02S
KEARNEY *      SUNNY     57  45  62 NW12      30.01R
YORK           SUNNY     59  48  67 NW14      29.97R
$$

NEZ011>018-030>034-042>045-281400-
NORTHEAST NEBRASKA

CITY           SKY/WX    TMP DP  RH WIND       PRES   REMARKS
NORFOLK        SUNNY     57  48  72 W7        29.91S
ALBION         SUNNY     58  48  69 NW6       29.96R
BLAIR          SUNNY     59  51  74 W6        29.91R
FREMONT        SUNNY     58  51  75 W9        29.92R
TEKAMAH        SUNNY     61  49  64 NW14      29.89R
WAYNE          MOSUNNY   61  50  66 NW8       29.91R
$$

NEZ050>053-065>068-078-088>093-281400-
SOUTHEAST NEBRASKA

CITY           SKY/WX    TMP DP  RH WIND       PRES   REMARKS
LINCOLN        SUNNY     62  50  64 NW7       29.94R
OMAHA EPPLEY   SUNNY     61  51  70 NW3       29.91R
BEATRICE       SUNNY     59  54  82 W10       29.95R
FALLS CITY     SUNNY     60  55  83 W6        29.92R
NEBRASKA CITY  MOSUNNY   60  53  75 W7        29.91R
PLATTSMOUTH    SUNNY     61  53  73 W9        29.91R
$$

NEZ044-045-051>053-067-281400-
OMAHA AREA

CITY           SKY/WX    TMP DP  RH WIND       PRES   REMARKS
OMAHA EPPLEY   SUNNY     61  51  70 NW3       29.91R
BLAIR          SUNNY     59  51  74 W6        29.91R
FREMONT        SUNNY     58  51  75 W9        29.92R
MILLARD        SUNNY     62  53  72 NW9       29.91R
OFFUTT AFB     SUNNY     59  53  79 W9        29.90R
PLATTSMOUTH    SUNNY     61  53  73 W9        29.91R
WAHOO          FAIR      62  48  60 NW13G20   29.92R
$$




USA.gov is the U.S. government's official web portal to all federal, state and local government web resources and services.